GW4949 Weather Reports


time (UTC)temp
C
wind
direction
speed
KPH
gust
KPH
rain 1hr
cm
rain 24hr
cm
rain mn
cm
humidity
%
barometer
mb
20260502150109 15 99 0.0 0.0 0.00 0.00 0.00 34 1021.1
20260502130452 9 62 0.0 0.0 0.00 0.00 0.00 34 1020.8
20260502123435 8 51 0.0 0.0 0.00 0.00 0.00 37 1020.8
20260502122932 8 128 1.6 3.2 0.00 0.00 0.00 36 1020.8
20260502122428 8 36 0.0 0.0 0.00 0.00 0.00 37 1020.8
20260502121926 8 39 0.0 0.0 0.00 0.00 0.00 36 1020.8
20260502121423 8 49 0.0 0.0 0.00 0.00 0.00 37 1020.8
20260502120921 7 62 0.0 0.0 0.00 0.00 0.00 37 1020.8
20260502120416 7 107 0.0 0.0 0.00 0.00 0.00 38 1020.8
20260502115914 7 107 0.0 0.0 0.00 0.00 0.00 40 1020.8
20260502115411 7 80 0.0 0.0 0.00 0.00 0.00 43 1020.8
20260502114906 7 80 0.0 0.0 0.00 0.00 0.00 41 1020.8
20260502114404 7 81 0.0 0.0 0.00 0.00 0.00 41 1020.8
20260502113901 7 81 0.0 0.0 0.00 0.00 0.00 40 1020.8
20260502113359 7 81 0.0 0.0 0.00 0.00 0.00 38 1020.8
20260502112857 7 142 0.0 0.0 0.00 0.00 0.00 39 1020.3
20260502112354 8 142 0.0 0.0 0.00 0.00 0.00 40 1020.8
20260502111851 8 142 0.0 0.0 0.00 0.00 0.00 36 1020.8
20260502111348 8 142 0.0 0.0 0.00 0.00 0.00 36 1020.8
20260502110846 9 141 0.0 0.0 0.00 0.00 0.00 34 1020.3
20260502110344 9 152 1.6 1.6 0.00 0.00 0.00 33 1020.8
20260502105841 9 124 0.0 0.0 0.00 0.00 0.00 33 1020.3
20260502105338 8 138 0.0 1.6 0.00 0.00 0.00 35 1020.3
20260502104836 8 121 1.6 1.6 0.00 0.00 0.00 38 1020.8
20260502104333 8 139 0.0 0.0 0.00 0.00 0.00 41 1020.8
20260502103830 8 140 0.0 0.0 0.00 0.00 0.00 38 1020.8
20260502103327 8 68 0.0 0.0 0.00 0.00 0.00 35 1020.8
20260502102825 9 68 0.0 0.0 0.00 0.00 0.00 34 1020.3
20260502102321 10 68 0.0 0.0 0.00 0.00 0.00 32 1020.8
20260502101819 10 144 0.0 1.6 0.00 0.00 0.00 31 1020.8
20260502101317 10 49 3.2 4.8 0.00 0.00 0.00 31 1020.3
20260502100815 10 40 0.0 1.6 0.00 0.00 0.00 32 1020.3
20260502100313 10 41 0.0 0.0 0.00 0.00 0.00 32 1020.0
20260502091247 9 59 0.0 0.0 0.00 0.00 0.00 34 1020.3
20260502090745 8 154 1.6 3.2 0.00 0.00 0.00 35 1020.3
20260502090241 9 147 0.0 0.0 0.00 0.00 0.00 40 1020.8
20260502071142 11 53 0.0 0.0 0.00 0.00 0.00 32 1020.3
20260502070640 11 101 0.0 1.6 0.00 0.00 0.00 32 1020.8
20260502070138 11 68 1.6 3.2 0.00 0.00 0.00 33 1020.3
20260502065636 11 137 1.6 3.2 0.00 0.00 0.00 35 1020.8
20260502065133 10 100 1.6 3.2 0.00 0.00 0.00 35 1020.8
20260502064632 10 81 1.6 1.6 0.00 0.00 0.00 36 1020.3
20260502064128 10 65 1.6 1.6 0.00 0.00 0.00 37 1020.3
20260502063626 10 72 1.6 1.6 0.00 0.00 0.00 38 1020.8
20260502063124 10 142 0.0 0.0 0.00 0.00 0.00 39 1020.8
20260502062620 10 113 0.0 1.6 0.00 0.00 0.00 40 1020.3
20260502062118 10 141 1.6 1.6 0.00 0.00 0.00 40 1020.3
20260502061616 10 40 1.6 3.2 0.00 0.00 0.00 40 1020.3
20260502061114 10 41 0.0 0.0 0.00 0.00 0.00 41 1020.8
20260502060613 10 57 0.0 0.0 0.00 0.00 0.00 41 1020.8
20260502060110 10 36 1.6 1.6 0.00 0.00 0.00 41 1020.3
20260502055608 10 42 3.2 4.8 0.00 0.00 0.00 40 1020.8
20260502055106 10 130 0.0 0.0 0.00 0.00 0.00 40 1020.8
20260502054605 11 35 0.0 0.0 0.00 0.00 0.00 40 1020.3
20260502054102 11 129 1.6 1.6 0.00 0.00 0.00 41 1020.3
20260502053558 11 53 0.0 0.0 0.00 0.00 0.00 41 1020.3
20260502053056 11 88 1.6 1.6 0.00 0.00 0.00 41 1020.3
20260502052554 11 39 1.6 1.6 0.00 0.00 0.00 41 1020.3
20260502052052 11 132 3.2 3.2 0.00 0.00 0.00 40 1020.3
20260502051550 11 83 0.0 0.0 0.00 0.00 0.00 40 1020.3
20260502051048 11 175 1.6 3.2 0.00 0.00 0.00 41 1020.8
20260502050543 11 104 0.0 0.0 0.00 0.00 0.00 42 1020.3
20260502050041 11 91 1.6 1.6 0.00 0.00 0.00 42 1020.3
20260502045537 11 116 0.0 1.6 0.00 0.00 0.00 42 1020.3
20260502045035 11 119 3.2 3.2 0.00 0.00 0.00 42 1020.3
20260502044531 11 56 0.0 0.0 0.00 0.00 0.00 42 1020.3
20260502044027 11 54 0.0 0.0 0.00 0.00 0.00 42 1020.3
20260502043525 11 47 0.0 0.0 0.00 0.00 0.00 42 1020.3
20260502043021 11 27 0.0 0.0 0.00 0.00 0.00 43 1020.0
20260502042516 11 340 0.0 0.0 0.00 0.00 0.00 44 1020.3
20260502042014 11 340 0.0 0.0 0.00 0.00 0.00 44 1020.3
20260502041512 11 340 0.0 0.0 0.00 0.00 0.00 43 1020.3
20260502041009 11 340 0.0 0.0 0.00 0.00 0.00 44 1020.3
20260502040505 11 340 0.0 0.0 0.00 0.00 0.00 45 1020.3
20260502040003 11 340 0.0 0.0 0.00 0.00 0.00 45 1020.3
20260502035457 11 340 0.0 0.0 0.00 0.00 0.00 44 1020.3
20260502034955 11 340 0.0 0.0 0.00 0.00 0.00 42 1020.3
20260502034454 12 340 0.0 0.0 0.00 0.00 0.00 41 1020.0
20260502033952 12 339 0.0 0.0 0.00 0.00 0.00 42 1020.0
20260502033449 12 334 0.0 0.0 0.00 0.00 0.00 40 1020.0
20260502032945 -17 0.0 0.0 0.00 0.00 0.00 1020.0
20260502032443 -17 0.0 0.0 0.00 0.00 0.00 1019.6
20260502031939 -17 0.0 0.0 0.00 0.00 0.00 1019.6
20260502031438 -17 0.0 0.0 0.00 0.00 0.00 1019.6
20260502030935 13 159 0.0 0.0 0.00 0.00 0.00 35 1019.2
20260502030433 13 159 0.0 0.0 0.00 0.00 0.00 35 1019.6
20260502025931 13 159 0.0 0.0 0.00 0.00 0.00 34 1019.2
20260502025427 13 159 0.0 0.0 0.00 0.00 0.00 34 1019.6
20260502024925 14 162 0.0 0.0 0.00 0.00 0.00 33 1018.8
20260502024423 15 168 0.0 0.0 0.00 0.00 0.00 32 1019.6
20260502023921 15 173 0.0 0.0 0.00 0.00 0.00 32 1019.2
20260502023418 15 179 1.6 1.6 0.00 0.00 0.00 32 1019.2
20260502022916 15 190 1.6 1.6 0.00 0.00 0.00 33 1019.2
20260502022412 15 226 4.8 8.0 0.00 0.00 0.00 34 1018.8
20260502021909 15 188 1.6 1.6 0.00 0.00 0.00 35 1018.8
20260502021406 16 185 0.0 1.6 0.00 0.00 0.00 36 1018.8
20260502020903 16 267 3.2 4.8 0.00 0.00 0.00 35 1018.8
20260502020401 17 238 3.2 3.2 0.00 0.00 0.00 34 1018.8
20260502015858 17 196 1.6 1.6 0.00 0.00 0.00 33 1018.5
20260502015355 17 167 1.6 1.6 0.00 0.00 0.00 32 1018.8
20260502014852 17 225 4.8 8.0 0.00 0.00 0.00 32 1018.5
20260502014349 17 2 4.8 4.8 0.00 0.00 0.00 31 1018.5
20260502013845 17 80 1.6 3.2 0.00 0.00 0.00 31 1018.5
20260502013341 17 321 3.2 4.8 0.00 0.00 0.00 31 1018.5
20260502012837 17 272 6.4 8.0 0.00 0.00 0.00 31 1018.5
20260502012336 17 192 1.6 1.6 0.00 0.00 0.00 31 1018.5
20260502011832 17 343 4.8 4.8 0.00 0.00 0.00 31 1018.8
20260502011328 18 271 9.7 11.3 0.00 0.00 0.00 31 1018.8
20260502010826 18 165 3.2 4.8 0.00 0.00 0.00 31 1018.5
20260502010322 17 353 3.2 3.2 0.00 0.00 0.00 31 1018.5
20260502005819 17 315 6.4 8.0 0.00 0.00 0.00 31 1018.5
20260502005317 18 347 6.4 9.7 0.00 0.00 0.00 30 1018.5
20260502004814 18 308 4.8 4.8 0.00 0.00 0.00 30 1018.5
20260502004310 18 162 1.6 3.2 0.00 0.00 0.00 30 1018.5
20260502003808 18 288 4.8 4.8 0.00 0.00 0.00 30 1018.8
20260502003305 18 354 4.8 8.0 0.00 0.00 0.00 30 1018.5
20260502002800 18 329 6.4 9.7 0.00 0.00 0.00 30 1018.5
20260502002258 18 283 8.0 8.0 0.00 0.00 0.00 30 1018.5
20260502001755 18 79 3.2 4.8 0.00 0.00 0.00 29 1018.5
20260502001254 18 291 8.0 9.7 0.00 0.00 0.00 30 1018.5
20260502000751 18 330 6.4 8.0 0.00 0.00 0.00 30 1018.5
20260502000249 18 153 4.8 4.8 0.00 0.00 0.00 30 1018.8
20260501235744 18 343 8.0 9.7 0.00 0.00 0.00 30 1018.8
20260501235240 18 268 8.0 9.7 0.00 0.00 0.00 30 1018.8
20260501234736 18 337 6.4 8.0 0.00 0.00 0.00 30 1018.5
20260501234233 18 16 6.4 8.0 0.00 0.00 0.00 29 1018.8
20260501233731 18 349 4.8 4.8 0.00 0.00 0.00 30 1018.8
20260501233229 17 315 8.0 9.7 0.00 0.00 0.00 30 1018.8
20260501232724 18 343 8.0 9.7 0.00 0.00 0.00 30 1018.8
20260501232222 18 358 8.0 11.3 0.00 0.00 0.00 29 1018.8
20260501231719 18 278 6.4 9.7 0.00 0.00 0.00 29 1018.8
20260501231217 18 119 1.6 1.6 0.00 0.00 0.00 29 1018.8
20260501230715 18 342 4.8 4.8 0.00 0.00 0.00 29 1018.8
20260501230214 18 174 0.0 0.0 0.00 0.00 0.00 27 1018.5
20260501225710 18 29 4.8 4.8 0.00 0.00 0.00 28 1018.8
20260501225208 18 278 11.3 14.5 0.00 0.00 0.00 28 1018.8
20260501224703 18 81 4.8 8.0 0.00 0.00 0.00 28 1018.8
20260501224201 18 285 4.8 4.8 0.00 0.00 0.00 27 1018.8
20260501223657 18 63 4.8 4.8 0.00 0.00 0.00 28 1018.8
20260501223154 18 347 6.4 8.0 0.00 0.00 0.00 27 1018.8
20260501222650 17 358 4.8 4.8 0.00 0.00 0.00 27 1018.8
20260501222147 18 277 11.3 11.3 0.00 0.00 0.00 28 1018.8
20260501221644 18 30 6.4 8.0 0.00 0.00 0.00 29 1019.2
20260501221141 18 161 0.0 0.0 0.00 0.00 0.00 28 1019.2
20260501220639 18 326 4.8 8.0 0.00 0.00 0.00 27 1019.2
20260501220136 18 256 0.0 3.2 0.00 0.00 0.00 28 1019.6
20260501215633 18 295 4.8 4.8 0.00 0.00 0.00 28 1019.6
20260501215128 17 293 9.7 11.3 0.00 0.00 0.00 27 1019.2
20260501214623 17 268 9.7 11.3 0.00 0.00 0.00 28 1019.2
20260501214119 17 263 8.0 11.3 0.00 0.00 0.00 29 1019.6
20260501213616 18 311 6.4 9.7 0.00 0.00 0.00 27 1019.2
20260501213112 18 274 8.0 11.3 0.00 0.00 0.00 27 1019.6
20260501212609 17 44 3.2 3.2 0.00 0.00 0.00 28 1019.6
20260501212105 17 217 3.2 4.8 0.00 0.00 0.00 28 1019.6
20260501211602 17 316 8.0 11.3 0.00 0.00 0.00 28 1019.2
20260501211100 17 331 8.0 9.7 0.00 0.00 0.00 29 1019.6
20260501210556 17 261 6.4 8.0 0.00 0.00 0.00 26 1019.6
20260501210053 17 252 9.7 12.9 0.00 0.00 0.00 27 1019.6
20260501205549 17 57 4.8 4.8 0.00 0.00 0.00 26 1019.6
20260501205047 17 269 8.0 9.7 0.00 0.00 0.00 27 1019.6
20260501204543 17 276 6.4 8.0 0.00 0.00 0.00 27 1019.6
20260501204039 18 345 6.4 8.0 0.00 0.00 0.00 28 1019.6
20260501203536 18 261 9.7 11.3 0.00 0.00 0.00 26 1019.6
20260501203034 18 85 3.2 3.2 0.00 0.00 0.00 23 1019.6
20260501202531 18 87 4.8 8.0 0.00 0.00 0.00 24 1019.6
20260501202027 17 258 4.8 4.8 0.00 0.00 0.00 25 1019.6
20260501201525 17 331 6.4 8.0 0.00 0.00 0.00 23 1019.6
20260501201021 17 280 4.8 4.8 0.00 0.00 0.00 24 1019.6
20260501200518 17 164 6.4 9.7 0.00 0.00 0.00 24 1019.6
20260501200015 17 156 0.0 0.0 0.00 0.00 0.00 24 1019.6
20260501195512 18 53 4.8 4.8 0.00 0.00 0.00 24 1019.6
20260501195008 18 175 3.2 3.2 0.00 0.00 0.00 24 1019.2
20260501194504 17 322 6.4 8.0 0.00 0.00 0.00 25 1019.6
20260501194000 17 264 12.9 14.5 0.00 0.00 0.00 24 1019.6
20260501193458 18 323 8.0 9.7 0.00 0.00 0.00 25 1019.6
20260501192955 18 168 4.8 4.8 0.00 0.00 0.00 22 1019.6
20260501192453 17 208 8.0 11.3 0.00 0.00 0.00 23 1019.6
20260501191950 17 243 6.4 8.0 0.00 0.00 0.00 24 1020.0
20260501191447 17 213 1.6 1.6 0.00 0.00 0.00 23 1019.6
20260501190944 17 72 4.8 4.8 0.00 0.00 0.00 25 1019.6
20260501190440 17 1 4.8 8.0 0.00 0.00 0.00 26 1019.6
20260501185935 17 251 6.4 9.7 0.00 0.00 0.00 25 1020.0
20260501185431 17 215 6.4 8.0 0.00 0.00 0.00 25 1020.0
20260501184927 17 267 6.4 11.3 0.00 0.00 0.00 24 1020.0
20260501184424 17 225 3.2 3.2 0.00 0.00 0.00 25 1020.0
20260501183919 17 193 4.8 4.8 0.00 0.00 0.00 25 1020.3
20260501183416 17 279 4.8 4.8 0.00 0.00 0.00 23 1020.0
20260501182913 17 346 4.8 8.0 0.00 0.00 0.00 24 1020.3
20260501182410 16 174 3.2 3.2 0.00 0.00 0.00 25 1020.0
20260501181906 17 290 6.4 9.7 0.00 0.00 0.00 25 1020.3
20260501181403 17 309 6.4 8.0 0.00 0.00 0.00 25 1020.3
20260501180901 17 359 4.8 4.8 0.00 0.00 0.00 26 1020.3
20260501180357 17 194 3.2 4.8 0.00 0.00 0.00 25 1020.3
20260501175854 16 95 4.8 9.7 0.00 0.00 0.00 26 1020.8
20260501175351 17 149 1.6 3.2 0.00 0.00 0.00 26 1020.3
20260501174847 17 351 4.8 4.8 0.00 0.00 0.00 26 1020.3
20260501174345 17 102 3.2 3.2 0.00 0.00 0.00 25 1020.8
20260501173843 16 17 4.8 8.0 0.00 0.00 0.00 26 1020.3
20260501173340 17 135 1.6 1.6 0.00 0.00 0.00 25 1020.8
20260501172836 17 216 3.2 3.2 0.00 0.00 0.00 27 1021.1
20260501172331 16 98 3.2 4.8 0.00 0.00 0.00 27 1020.8
20260501171827 16 115 0.0 1.6 0.00 0.00 0.00 27 1020.8
20260501171324 16 96 4.8 4.8 0.00 0.00 0.00 27 1020.8
20260501170820 16 61 4.8 4.8 0.00 0.00 0.00 27 1020.8
20260501170317 16 76 4.8 9.7 0.00 0.00 0.00 27 1020.8
20260501165814 16 107 4.8 4.8 0.00 0.00 0.00 28 1020.8
20260501165313 15 100 1.6 3.2 0.00 0.00 0.00 30 1020.8
20260501164810 15 109 3.2 4.8 0.00 0.00 0.00 29 1020.8
20260501164308 15 106 12.9 16.1 0.00 0.00 0.00 29 1021.1
20260501163803 15 51 6.4 11.3 0.00 0.00 0.00 30 1021.1
20260501163300 15 87 3.2 3.2 0.00 0.00 0.00 31 1020.8
20260501162756 15 112 6.4 9.7 0.00 0.00 0.00 31 1020.8
20260501162253 15 85 4.8 8.0 0.00 0.00 0.00 32 1020.8
20260501161750 15 65 6.4 8.0 0.00 0.00 0.00 32 1020.8
20260501161248 15 95 6.4 8.0 0.00 0.00 0.00 33 1020.8
20260501160743 15 206 6.4 8.0 0.00 0.00 0.00 35 1020.8
20260501160240 15 106 6.4 8.0 0.00 0.00 0.00 34 1020.8
20260501155737 14 204 3.2 3.2 0.00 0.00 0.00 35 1020.8
20260501155235 15 189 3.2 3.2 0.00 0.00 0.00 36 1020.8
20260501154731 13 164 1.6 1.6 0.00 0.00 0.00 36 1020.8
20260501154228 13 190 4.8 8.0 0.00 0.00 0.00 38 1020.8
20260501153725 13 186 0.0 1.6 0.00 0.00 0.00 37 1020.8
20260501153223 13 195 1.6 3.2 0.00 0.00 0.00 39 1020.8
20260501152719 13 179 3.2 3.2 0.00 0.00 0.00 38 1021.1
20260501152216 13 155 3.2 3.2 0.00 0.00 0.00 39 1020.8
20260501151713 13 120 3.2 4.8 0.00 0.00 0.00 37 1020.8
20260501151209 12 61 4.8 8.0 0.00 0.00 0.00 39 1020.3
20260501150706 12 103 3.2 4.8 0.00 0.00 0.00 40 1020.8